Glasgow, United Kingdom

5:57 AM BST on August 21, 2018 (GMT +0100)
Glasgow

Weather History for EGPF - August, 2018

Change the Weather History Date:

Saturday, August 11, 2018

  Actual Average Record
Temperature  
Mean Temperature 54 °F -  
Max Temperature 66 °F 63 °F 73 °F (1996)
Min Temperature 42 °F 48 °F 39 °F (1999)
Degree Days  
Heating Degree Days 11    
Growing Degree Days 4 (Base 50)    
Moisture  
Dew Point 47 °F    
Average Humidity 72    
Maximum Humidity 100    
Minimum Humidity 52    
Precipitation  
Precipitation 0.00 in - - ()
Sea Level Pressure  
Sea Level Pressure 30.03 in    
Wind  
Wind Speed 5 mph ()    
Max Wind Speed 16 mph    
Max Gust Speed -    
Visibility 6.2 miles    
Events Rain    
Averages and records for this station are not official NWS values.
T = Trace of Precipitation, MM = Missing Value Source: Averaged Metar Reports

Daily Weather History Graph

Daily Weather History Graph

Search for Another Location

Airport or City:

Astronomy

Aug. 11, 2018 Rise Set
Actual Time 5:41 AM BST 9:03 PM BST
Civil Twilight 4:56 AM BST 9:47 PM BST
Nautical Twilight 3:55 AM BST 10:48 PM BST
Astronomical Twilight 2:13 AM BST 12:23 AM BST
Moon 5:24 AM BST (8/11) 9:19 PM BST (8/11)
Length of Visible Light 16h 51m
Length of Day
15h 22m
New Moon, 0% of the Moon is Illuminated
Aug 11
New Moon
Aug 18
First Quarter
Aug 26
Full
Sep 3
Last Quarter
Sep 9
New

Hourly Weather History & Observations

Time (BST) Temp. Windchill Dew Point Humidity Pressure Visibility Wind Dir Wind Speed Gust Speed Precip Events Conditions
12:20 AM 48.2 °F - 46.4 °F 93% 30.09 in 6.2 mi WSW 4.6 mph - N/A   Unknown
12:50 AM 50.0 °F - 46.4 °F 87% 30.09 in 6.2 mi WSW 6.9 mph - N/A   Unknown
1:20 AM 46.4 °F 43.5 °F 44.6 °F 93% 30.09 in 6.2 mi WSW 5.8 mph - N/A   Unknown
1:50 AM 48.2 °F - 46.4 °F 93% 30.09 in 6.2 mi West 4.6 mph - N/A   Unknown
2:20 AM 50.0 °F - 46.4 °F 87% 30.09 in 6.2 mi Variable 3.5 mph - N/A   Unknown
2:50 AM 46.4 °F 44.3 °F 42.8 °F 87% 30.09 in 6.2 mi West 4.6 mph - N/A   Unknown
3:20 AM 46.4 °F 45.2 °F 44.6 °F 93% 30.09 in 6.2 mi WNW 3.5 mph - N/A   Unknown
3:50 AM 46.4 °F 45.2 °F 44.6 °F 93% 30.09 in 6.2 mi West 3.5 mph - N/A   Partly Cloudy
4:20 AM 44.6 °F 43.1 °F 44.6 °F 100% 30.09 in 5.6 mi WSW 3.5 mph - N/A   Unknown
4:50 AM 42.8 °F 41.1 °F 42.8 °F 100% 30.09 in 6.2 mi Variable 3.5 mph - N/A   Unknown
5:20 AM 42.8 °F 41.1 °F 42.8 °F 100% 30.09 in 6.2 mi WNW 3.5 mph - N/A   Unknown
5:50 AM 42.8 °F - 42.8 °F 100% 30.09 in 6.2 mi WSW 2.3 mph - N/A   Scattered Clouds
6:20 AM 46.4 °F - 44.6 °F 93% 30.09 in 6.2 mi Variable 1.2 mph - N/A   Scattered Clouds
6:50 AM 46.4 °F - 46.4 °F 100% 30.12 in 6.2 mi Calm Calm - N/A   Scattered Clouds
7:20 AM 50.0 °F - 48.2 °F 94% 30.12 in 6.2 mi Variable 2.3 mph - N/A   Unknown
7:50 AM 50.0 °F - 50.0 °F 100% 30.12 in 6.2 mi Variable 2.3 mph - N/A   Unknown
8:20 AM 51.8 °F - 50.0 °F 94% 30.09 in 6.2 mi Variable 3.5 mph - N/A   Unknown
8:50 AM 55.4 °F - 50.0 °F 82% 30.09 in 6.2 mi Variable 2.3 mph - N/A   Unknown
9:20 AM 57.2 °F - 50.0 °F 77% 30.09 in 6.2 mi Variable 1.2 mph - N/A   Unknown
9:50 AM 59.0 °F - 50.0 °F 72% 30.09 in 6.2 mi SW 5.8 mph - N/A   Scattered Clouds
10:20 AM 59.0 °F - 50.0 °F 72% 30.09 in 6.2 mi SSW 5.8 mph - N/A   Scattered Clouds
10:50 AM 60.8 °F - 48.2 °F 63% 30.09 in 6.2 mi SSW 10.4 mph - N/A   Mostly Cloudy
11:20 AM 60.8 °F - 48.2 °F 63% 30.06 in 6.2 mi SSW 10.4 mph - N/A   Unknown
11:50 AM 62.6 °F - 48.2 °F 59% 30.06 in 6.2 mi SW 11.5 mph - N/A   Partly Cloudy
12:20 PM 62.6 °F - 46.4 °F 55% 30.06 in 6.2 mi SSW 11.5 mph - N/A   Unknown
12:50 PM 62.6 °F - 46.4 °F 55% 30.06 in 6.2 mi SSW 11.5 mph - N/A   Partly Cloudy
1:20 PM 64.4 °F - 46.4 °F 52% 30.04 in 6.2 mi SW 9.2 mph - N/A   Scattered Clouds
1:50 PM 64.4 °F - 46.4 °F 52% 30.04 in 6.2 mi SW 10.4 mph - N/A   Partly Cloudy
2:20 PM 64.4 °F - 46.4 °F 52% 30.04 in 6.2 mi South 6.9 mph - N/A   Mostly Cloudy
2:50 PM 66.2 °F - 48.2 °F 52% 30.04 in 6.2 mi South 8.1 mph - N/A   Mostly Cloudy
3:20 PM 66.2 °F - 48.2 °F 52% 30.01 in 6.2 mi Variable 3.5 mph - N/A   Partly Cloudy
3:50 PM 66.2 °F - 48.2 °F 52% 30.01 in 6.2 mi Variable 2.3 mph - N/A   Scattered Clouds
4:20 PM 66.2 °F - 48.2 °F 52% 29.98 in 6.2 mi Variable 2.3 mph - N/A   Mostly Cloudy
4:50 PM 66.2 °F - 50.0 °F 56% 29.98 in 6.2 mi SSE 6.9 mph - N/A   Mostly Cloudy
5:20 PM 66.2 °F - 48.2 °F 52% 29.98 in 6.2 mi South 10.4 mph - N/A   Unknown
5:50 PM 66.2 °F - 48.2 °F 52% 29.95 in 6.2 mi SSE 9.2 mph - N/A   Scattered Clouds
6:20 PM 66.2 °F - 50.0 °F 56% 29.95 in 6.2 mi South 10.4 mph - N/A   Scattered Clouds
6:50 PM 64.4 °F - 48.2 °F 56% 29.95 in 6.2 mi SSE 11.5 mph - N/A   Unknown
7:20 PM 64.4 °F - 48.2 °F 56% 29.95 in 6.2 mi SSE 8.1 mph - N/A   Unknown
7:50 PM 64.4 °F - 48.2 °F 56% 29.92 in 6.2 mi SSE 11.5 mph - N/A   Overcast
8:20 PM 62.6 °F - 48.2 °F 59% 29.92 in 6.2 mi SSE 16.1 mph - N/A   Overcast
8:50 PM 62.6 °F - 48.2 °F 59% 29.92 in 6.2 mi ESE 6.9 mph - N/A   Overcast
9:20 PM 62.6 °F - 48.2 °F 59% 29.92 in 6.2 mi East 8.1 mph - N/A   Overcast
9:50 PM 62.6 °F - 48.2 °F 59% 29.89 in 6.2 mi East 8.1 mph - N/A   Overcast
10:20 PM 62.6 °F - 48.2 °F 59% 29.89 in 6.2 mi ENE 8.1 mph - N/A   Overcast
10:50 PM 60.8 °F - 50.0 °F 68% 29.89 in 6.2 mi NE 10.4 mph - N/A   Overcast
11:20 PM 59.0 °F - 50.0 °F 72% 29.89 in 6.2 mi ENE 8.1 mph - N/A   Overcast
11:50 PM 57.2 °F - 51.8 °F 82% 29.89 in 5.0 mi NE 10.4 mph - N/A Rain Light Rain